Akron Canton, OH

3:43 PM EDT on July 22, 2017 (GMT -0400)
Akron-Canton Regional

Weather History for KCAK - March, 2013

Change the Weather History Date:

Thursday, March 28, 2013

  Actual Average Record
Temperature  
Mean Temperature 39 °F 42 °F  
Max Temperature 45 °F 52 °F 80 °F (1910)
Min Temperature 33 °F 32 °F 12 °F (1982)
Degree Days  
Heating Degree Days 26 23  
Month to date heating degree days 878 784  
Since 1 July heating degree days 5139 5328  
Cooling Degree Days 0 0  
Month to date cooling degree days 0 0  
Year to date cooling degree days 0 0  
Moisture  
Dew Point 27 °F    
Average Humidity 62    
Maximum Humidity 75    
Minimum Humidity 49    
Precipitation  
Precipitation T in 0.11 in 1.34 in (1985)
Month to date precipitation 2.06 2.65  
Year to date precipitation 6.25 7.57  
Snow  
Snow T in 0.20 in - ()
Month to date snowfall 10.5 7.7  
Since 1 July snowfall 46.9 44.2  
Snow Depth 0.00 in    
Sea Level Pressure  
Sea Level Pressure 30.23 in    
Wind  
Wind Speed 9 mph (WNW)    
Max Wind Speed 17 mph    
Max Gust Speed 22 mph    
Visibility 10 miles    
Events Snow    
T = Trace of Precipitation, MM = Missing Value Source: NWS Daily Summary

Daily Weather History Graph

Daily Weather History Graph

Search for Another Location

Airport or City:

Trip Planner

Search our weather history database for the weather conditions in past years. The results will help you decide how hot, cold, wet, or windy it might be!

Date:

Astronomy

Mar. 28, 2013 Rise Set
Actual Time 7:15 AM EDT 7:46 PM EDT
Civil Twilight 6:47 AM EDT 8:14 PM EDT
Nautical Twilight 6:15 AM EDT 8:46 PM EDT
Astronomical Twilight 5:42 AM EDT 9:20 PM EDT
Moon 9:38 PM EDT (3/28) 7:41 AM EDT (3/28)
Length of Visible Light 13h 26m
Length of Day
12h 31m
Full, 98% of the Moon is Illuminated
Mar 28
Full
Apr 3
Last Quarter
Apr 10
New
Apr 18
First Quarter
Apr 25
Full

Hourly Weather History & Observations

Time (EDT) Temp. Windchill Dew Point Humidity Pressure Visibility Wind Dir Wind Speed Gust Speed Precip Events Conditions
12:51 AM 37.0 °F 31.0 °F 27.0 °F 67% 30.18 in 9.0 mi WNW 8.1 mph - 0.00 in Snow Light Snow
1:51 AM 36.0 °F 28.5 °F 27.0 °F 70% 30.17 in 10.0 mi WNW 10.4 mph - 0.00 in   Overcast
2:51 AM 35.1 °F 26.4 °F 26.1 °F 70% 30.18 in 10.0 mi WNW 12.7 mph - N/A   Overcast
3:51 AM 35.1 °F 26.4 °F 26.1 °F 70% 30.17 in 10.0 mi NW 12.7 mph 21.9 mph N/A   Overcast
4:51 AM 34.0 °F 26.6 °F 26.1 °F 73% 30.18 in 10.0 mi WNW 9.2 mph - N/A   Overcast
5:51 AM 33.1 °F 26.1 °F 25.0 °F 72% 30.19 in 10.0 mi WNW 8.1 mph - N/A   Overcast
6:51 AM 33.1 °F 26.1 °F 25.0 °F 72% 30.20 in 10.0 mi WNW 8.1 mph - N/A   Overcast
7:51 AM 33.1 °F 25.5 °F 25.0 °F 72% 30.22 in 10.0 mi WNW 9.2 mph - N/A   Mostly Cloudy
8:51 AM 34.0 °F 26.0 °F 25.0 °F 70% 30.23 in 10.0 mi WNW 10.4 mph - N/A   Mostly Cloudy
9:51 AM 36.0 °F 27.1 °F 26.1 °F 67% 30.24 in 10.0 mi NW 13.8 mph - N/A   Mostly Cloudy
10:51 AM 37.0 °F 29.3 °F 27.0 °F 67% 30.25 in 10.0 mi NW 11.5 mph - N/A   Mostly Cloudy
11:51 AM 37.9 °F 31.5 °F 27.0 °F 65% 30.27 in 10.0 mi WNW 9.2 mph - N/A   Mostly Cloudy
12:51 PM 39.9 °F 33.9 °F 28.9 °F 65% 30.26 in 10.0 mi WNW 9.2 mph - N/A   Overcast
1:51 PM 42.1 °F 35.2 °F 28.9 °F 60% 30.26 in 10.0 mi WNW 12.7 mph 16.1 mph N/A   Overcast
2:51 PM 43.0 °F 37.2 °F 28.9 °F 58% 30.24 in 10.0 mi WNW 10.4 mph 17.3 mph N/A   Overcast
3:51 PM 44.1 °F 38.6 °F 28.9 °F 55% 30.23 in 10.0 mi NW 10.4 mph - N/A   Overcast
4:51 PM 45.0 °F 39.7 °F 27.0 °F 49% 30.23 in 10.0 mi NW 10.4 mph - N/A   Overcast
5:51 PM 43.0 °F 36.4 °F 28.9 °F 58% 30.25 in 10.0 mi NW 12.7 mph - N/A   Overcast
6:51 PM 42.1 °F 36.6 °F 28.0 °F 58% 30.26 in 10.0 mi WNW 9.2 mph - N/A   Overcast
7:51 PM 39.9 °F 35.8 °F 28.0 °F 63% 30.27 in 10.0 mi NW 5.8 mph - N/A   Overcast
8:51 PM 39.0 °F - 27.0 °F 62% 30.27 in 10.0 mi Calm Calm - N/A   Overcast
9:51 PM 39.0 °F - 27.0 °F 62% 30.28 in 10.0 mi Calm Calm - N/A   Mostly Cloudy
10:51 PM 37.9 °F - 27.0 °F 65% 30.28 in 10.0 mi Calm Calm - N/A   Overcast
11:51 PM 36.0 °F 32.1 °F 26.1 °F 67% 30.29 in 10.0 mi SW 4.6 mph - N/A   Mostly Cloudy